Weather in Lozuvatka

Ukraine / Dnipropetrovsk Region     48°03′27″N   33°17′03″E
temp.,
°C
wind,
m/s
gust,
m/s
humid.,
%
clouds,
%
prec.,
mm/h
press.,
hPa
HPBL,
m
25 june, sat
sat2500:00+15nne510953 0.4 1010284
03:00+14nne4896100 0.4 1010187
06:00+15nne4894100 0.0 1012311
09:00+19ne57665 0.0 1013685
12:00+24ene574472 0.0 10132013
15:00+26ne554099 0.0 10122292
18:00+24nne3553100 0.0 1013634
21:00+21nne4869100 0.1 1014250
26 june, sun
sun2600:00+19ne3777100 0.0 1014188
03:00+18ne4885100 0.0 1015221
06:00+17ne489099 0.5 1015276
09:00+22ne45675 0.5 1016665
12:00+26ne4548100 0.0 10161475
15:00+28ne764692 0.0 10152299
18:00+25ene6854100 0.1 1016986
21:00+21ese3578100 0.3 1017159
27 june, mon
mon2700:00+20n368069 0.1 1017189
03:00+20nne51178100 0.1 1017319
06:00+19ne5128046 0.0 1018344
09:00+24ne795685 0.0 1017696
12:00+27ene7845100 0.0 10171847
15:00+29ene893693 0.0 10162439
18:00+28ene673762 0.0 10162266
21:00+22ne48565 0.0 1017280
28 june, tue
tue2800:00+19ne48635 0.0 1018191
03:00+18nne4769100 0.0 1018142
06:00+17nne487099 0.0 1018194
09:00+24ne575083 0.0 1017596
12:00+26ene4539100 0.0 10171234
15:00+30ne57345 0.0 10161886
18:00+29ne784696 0.0 10151396
21:00+24nne35686 0.0 1016107
29 june, wed
wed2900:00+22ne3672100 0.1 1016112
03:00+21ne498071 0.1 1017212
06:00+20ne410834 0.0 1017271
09:00+25ne57595 0.0 1018711
12:00+29ne67445 0.0 10181740
15:00+30ne77375 0.0 10172051
18:00+28ne77365 0.0 10171801
21:00+22ne49513 0.0 1018334